Time,TemperatureF,DewpointF,PressureIn,WindDirection,WindDirectionDegrees,WindSpeedMPH,WindSpeedGustMPH,Humidity,HourlyPrecipIn,Conditions,Clouds,dailyrainin,SoftwareType,DateUTC
2013-02-08 00:00:00,49.2,49.2,29.75,ENE,69,1.0,11.0,100,0.23,,---,0.56,VWS V14.01,2013-02-08 05:00:00,
2013-02-08 00:05:00,49.4,49.4,29.74,ENE,66,5.0,11.0,100,0.18,,---,0.00,VWS V14.01,2013-02-08 05:05:00,
2013-02-08 00:10:00,49.4,49.4,29.74,ENE,66,5.0,11.0,100,0.18,,---,0.00,VWS V14.01,2013-02-08 05:10:00,
2013-02-08 00:15:00,49.5,49.5,29.74,East,80,3.0,6.0,100,0.15,,---,0.01,VWS V14.01,2013-02-08 05:15:00,
2013-02-08 00:20:00,49.5,49.5,29.72,NE,56,6.0,14.0,100,0.15,,---,0.01,VWS V14.01,2013-02-08 05:20:00,
2013-02-08 00:25:00,49.5,49.5,29.72,NE,54,7.0,11.0,100,0.11,,---,0.02,VWS V14.01,2013-02-08 05:25:00,
2013-02-08 00:30:00,49.6,49.6,29.72,NNE,16,4.0,12.0,100,0.14,,---,0.05,VWS V14.01,2013-02-08 05:30:00,
2013-02-08 00:35:00,49.6,49.6,29.70,NE,44,5.0,9.0,100,0.12,,---,0.07,VWS V14.01,2013-02-08 05:35:00,
2013-02-08 00:40:00,49.6,49.6,29.70,NE,49,2.0,12.0,100,0.14,,---,0.09,VWS V14.01,2013-02-08 05:40:00,
2013-02-08 00:45:00,49.6,49.6,29.70,ENE,58,6.0,8.0,100,0.11,,---,0.09,VWS V14.01,2013-02-08 05:45:00,
2013-02-08 00:50:00,49.6,49.6,29.68,NNE,28,6.0,15.0,100,0.12,,---,0.10,VWS V14.01,2013-02-08 05:50:00,
2013-02-08 00:55:00,49.6,49.6,29.68,ENE,66,6.0,13.0,100,0.12,,---,0.11,VWS V14.01,2013-02-08 05:55:00,
2013-02-08 01:00:00,49.6,49.6,29.68,ENE,64,3.0,13.0,100,0.14,,---,0.13,VWS V14.01,2013-02-08 06:00:00,
2013-02-08 01:05:00,49.8,49.8,29.68,ENE,65,1.0,13.0,100,0.14,,---,0.14,VWS V14.01,2013-02-08 06:05:00,
2013-02-08 01:10:00,49.8,49.8,29.68,North,6,6.0,13.0,100,0.15,,---,0.15,VWS V14.01,2013-02-08 06:10:00,
2013-02-08 01:15:00,49.8,49.8,29.68,NNE,27,4.0,13.0,100,0.16,,---,0.18,VWS V14.01,2013-02-08 06:15:00,
2013-02-08 01:20:00,49.8,49.8,29.70,East,97,5.0,13.0,100,0.20,,---,0.20,VWS V14.01,2013-02-08 06:20:00,
2013-02-08 01:25:00,49.6,49.6,29.70,North,11,1.0,10.0,100,0.20,,---,0.22,VWS V14.01,2013-02-08 06:25:00,
2013-02-08 01:30:00,49.6,49.6,29.70,NNW,339,3.0,10.0,100,0.22,,---,0.24,VWS V14.01,2013-02-08 06:30:00,
2013-02-08 01:35:00,49.5,49.5,29.72,NW,311,2.0,3.0,100,0.20,,---,0.26,VWS V14.01,2013-02-08 06:35:00,
2013-02-08 01:40:00,49.5,49.5,29.72,NNW,336,1.0,8.0,100,0.22,,---,0.28,VWS V14.01,2013-02-08 06:40:00,
2013-02-08 01:45:00,49.4,49.4,29.72,ENE,65,2.0,5.0,100,0.21,,---,0.30,VWS V14.01,2013-02-08 06:45:00,
2013-02-08 01:50:00,49.2,49.2,29.72,North,0,2.0,6.0,100,0.22,,---,0.31,VWS V14.01,2013-02-08 06:50:00,
2013-02-08 01:55:00,49.2,49.2,29.72,West,277,1.0,5.0,100,0.23,,---,0.33,VWS V14.01,2013-02-08 06:55:00,
2013-02-08 02:00:00,49.1,49.1,29.72,North,7,1.0,6.0,100,0.23,,---,0.33,VWS V14.01,2013-02-08 07:00:00,
2013-02-08 02:05:00,48.9,48.9,29.72,North,4,1.0,7.0,100,0.21,,---,0.34,VWS V14.01,2013-02-08 07:05:00,
2013-02-08 02:10:00,48.8,48.8,29.72,NNW,343,2.0,13.0,100,0.22,,---,0.35,VWS V14.01,2013-02-08 07:10:00,
2013-02-08 02:15:00,48.6,48.6,29.72,NE,54,4.0,8.0,100,0.16,,---,0.37,VWS V14.01,2013-02-08 07:15:00,
2013-02-08 02:20:00,48.5,48.5,29.70,NE,48,10.0,17.0,100,0.16,,---,0.37,VWS V14.01,2013-02-08 07:20:00,
2013-02-08 02:25:00,48.2,48.2,29.70,NE,37,7.0,24.0,100,0.17,,---,0.38,VWS V14.01,2013-02-08 07:25:00,
2013-02-08 02:30:00,48.0,48.0,29.70,NW,325,2.0,24.0,100,0.18,,---,0.39,VWS V14.01,2013-02-08 07:30:00,
2013-02-08 02:35:00,47.9,47.9,29.67,West,275,1.0,7.0,100,0.15,,---,0.40,VWS V14.01,2013-02-08 07:35:00,
2013-02-08 02:40:00,47.9,47.9,29.67,North,11,2.0,8.0,100,0.15,,---,0.40,VWS V14.01,2013-02-08 07:40:00,
2013-02-08 02:45:00,47.9,47.9,29.67,North,0,10.0,14.0,100,0.11,,---,0.40,VWS V14.01,2013-02-08 07:45:00,
2013-02-08 02:50:00,47.7,47.7,29.66,North,356,4.0,14.0,100,0.11,,---,0.40,VWS V14.01,2013-02-08 07:50:00,
2013-02-08 02:55:00,47.6,47.6,29.66,North,1,4.0,12.0,100,0.08,,---,0.40,VWS V14.01,2013-02-08 07:55:00,
2013-02-08 03:00:00,47.4,47.4,29.66,ESE,114,3.0,12.0,100,0.08,,---,0.40,VWS V14.01,2013-02-08 08:00:00,
2013-02-08 03:05:00,47.4,47.4,29.66,NNE,28,1.0,18.0,100,0.06,,---,0.40,VWS V14.01,2013-02-08 08:05:00,
2013-02-08 03:10:00,47.3,47.3,29.66,North,0,5.0,18.0,100,0.06,,---,0.40,VWS V14.01,2013-02-08 08:10:00,
2013-02-08 03:15:00,47.3,47.3,29.66,North,0,6.0,11.0,100,0.04,,---,0.40,VWS V14.01,2013-02-08 08:15:00,
2013-02-08 03:20:00,47.3,47.3,29.66,NW,309,5.0,14.0,100,0.04,,---,0.40,VWS V14.01,2013-02-08 08:20:00,
2013-02-08 03:25:00,47.1,47.1,29.66,North,356,3.0,5.0,100,0.02,,---,0.40,VWS V14.01,2013-02-08 08:25:00,
2013-02-08 03:30:00,47.0,47.0,29.66,NW,316,3.0,7.0,100,0.02,,---,0.40,VWS V14.01,2013-02-08 08:30:00,
2013-02-08 03:35:00,47.0,47.0,29.67,NW,322,0.0,4.0,100,0.01,,---,0.40,VWS V14.01,2013-02-08 08:35:00,
2013-02-08 03:40:00,46.8,46.8,29.67,North,0,5.0,6.0,100,0.01,,---,0.40,VWS V14.01,2013-02-08 08:40:00,
2013-02-08 03:45:00,46.8,46.8,29.67,NW,311,7.0,10.0,100,0.00,,---,0.40,VWS V14.01,2013-02-08 08:45:00,
2013-02-08 03:50:00,46.7,46.7,29.66,NW,319,2.0,10.0,100,0.00,,---,0.40,VWS V14.01,2013-02-08 08:50:00,
2013-02-08 03:55:00,46.7,46.7,29.66,North,350,1.0,8.0,100,0.00,,---,0.40,VWS V14.01,2013-02-08 08:55:00,
2013-02-08 04:00:00,46.5,46.5,29.66,NNE,30,0.0,8.0,100,0.00,,---,0.40,VWS V14.01,2013-02-08 09:00:00,
2013-02-08 04:05:00,46.5,46.5,29.67,NNW,342,3.0,12.0,100,0.00,,---,0.40,VWS V14.01,2013-02-08 09:05:00,
2013-02-08 04:10:00,46.5,46.5,29.67,NW,308,5.0,12.0,100,0.00,,---,0.40,VWS V14.01,2013-02-08 09:10:00,
2013-02-08 04:15:00,46.5,46.5,29.67,NW,305,7.0,7.0,100,0.00,,---,0.40,VWS V14.01,2013-02-08 09:15:00,
2013-02-08 04:20:00,46.4,46.4,29.67,NE,40,4.0,8.0,100,0.00,,---,0.40,VWS V14.01,2013-02-08 09:20:00,
2013-02-08 04:25:00,46.4,46.4,29.67,NE,41,7.0,8.0,100,0.00,,---,0.40,VWS V14.01,2013-02-08 09:25:00,
2013-02-08 04:30:00,46.4,46.4,29.67,NNE,16,2.0,13.0,100,0.00,,---,0.40,VWS V14.01,2013-02-08 09:30:00,
2013-02-08 04:35:00,46.4,46.4,29.68,NW,325,3.0,7.0,100,0.00,,---,0.40,VWS V14.01,2013-02-08 09:35:00,
2013-02-08 04:40:00,46.2,46.2,29.68,North,0,0.0,7.0,100,0.00,,---,0.40,VWS V14.01,2013-02-08 09:40:00,
2013-02-08 04:45:00,46.2,46.2,29.68,NNW,328,2.0,7.0,100,0.00,,---,0.40,VWS V14.01,2013-02-08 09:45:00,
2013-02-08 04:50:00,46.2,46.2,29.67,North,350,1.0,11.0,100,0.00,,---,0.40,VWS V14.01,2013-02-08 09:50:00,
2013-02-08 04:55:00,46.2,46.2,29.67,North,10,2.0,5.0,100,0.00,,---,0.40,VWS V14.01,2013-02-08 09:55:00,
2013-02-08 05:00:00,46.2,46.2,29.67,North,0,1.0,5.0,100,0.00,,---,0.40,VWS V14.01,2013-02-08 10:00:00,
2013-02-08 05:05:00,46.1,46.1,29.68,NNE,25,1.0,5.0,100,0.00,,---,0.40,VWS V14.01,2013-02-08 10:05:00,
2013-02-08 05:10:00,46.1,46.1,29.68,North,0,2.0,6.0,100,0.00,,---,0.40,VWS V14.01,2013-02-08 10:10:00,
2013-02-08 05:15:00,46.1,46.1,29.68,NW,320,2.0,5.0,100,0.00,,---,0.40,VWS V14.01,2013-02-08 10:15:00,
2013-02-08 05:20:00,46.1,46.1,29.69,NNW,337,2.0,5.0,100,0.00,,---,0.40,VWS V14.01,2013-02-08 10:20:00,
2013-02-08 05:25:00,46.0,46.0,29.69,NW,326,2.0,6.0,100,0.00,,---,0.40,VWS V14.01,2013-02-08 10:25:00,
2013-02-08 05:30:00,46.0,45.7,29.69,ENE,62,3.0,6.0,99,0.00,,---,0.40,VWS V14.01,2013-02-08 10:30:00,
2013-02-08 05:35:00,46.0,45.7,29.70,NW,323,3.0,5.0,99,0.00,,---,0.40,VWS V14.01,2013-02-08 10:35:00,
2013-02-08 05:40:00,46.0,45.7,29.70,NW,316,3.0,5.0,99,0.00,,---,0.40,VWS V14.01,2013-02-08 10:40:00,
2013-02-08 05:45:00,45.8,45.5,29.70,NW,322,0.0,6.0,99,0.00,,---,0.40,VWS V14.01,2013-02-08 10:45:00,
2013-02-08 05:50:00,45.8,45.5,29.71,West,265,0.0,6.0,99,0.00,,---,0.40,VWS V14.01,2013-02-08 10:50:00,
2013-02-08 05:55:00,45.8,45.5,29.71,NW,311,1.0,3.0,99,0.00,,---,0.40,VWS V14.01,2013-02-08 10:55:00,
2013-02-08 06:00:00,45.8,45.5,29.71,NW,320,3.0,3.0,99,0.00,,---,0.40,VWS V14.01,2013-02-08 11:00:00,
2013-02-08 06:05:00,45.8,45.5,29.72,North,0,0.0,3.0,99,0.00,,---,0.40,VWS V14.01,2013-02-08 11:05:00,
2013-02-08 06:10:00,46.0,45.7,29.72,North,357,2.0,5.0,99,0.00,,---,0.40,VWS V14.01,2013-02-08 11:10:00,
2013-02-08 06:15:00,46.0,45.7,29.72,North,350,2.0,6.0,99,0.00,,---,0.40,VWS V14.01,2013-02-08 11:15:00,
2013-02-08 06:20:00,46.1,45.8,29.72,NNW,329,1.0,6.0,99,0.00,,---,0.40,VWS V14.01,2013-02-08 11:20:00,
2013-02-08 06:25:00,46.1,45.8,29.72,North,356,2.0,3.0,99,0.00,,---,0.40,VWS V14.01,2013-02-08 11:25:00,
2013-02-08 06:30:00,46.1,46.1,29.72,North,0,2.0,7.0,100,0.00,,---,0.40,VWS V14.01,2013-02-08 11:30:00,
2013-02-08 06:35:00,46.1,46.1,29.73,North,359,0.0,5.0,100,0.00,,---,0.40,VWS V14.01,2013-02-08 11:35:00,
2013-02-08 06:40:00,46.2,46.2,29.73,NW,308,3.0,5.0,100,0.00,,---,0.40,VWS V14.01,2013-02-08 11:40:00,
2013-02-08 06:45:00,46.1,46.1,29.73,North,352,1.0,5.0,100,0.00,,---,0.40,VWS V14.01,2013-02-08 11:45:00,
2013-02-08 06:50:00,46.2,45.9,29.74,NNW,329,0.0,6.0,99,0.00,,---,0.40,VWS V14.01,2013-02-08 11:50:00,
2013-02-08 06:55:00,46.2,45.9,29.74,WNW,298,2.0,6.0,99,0.00,,---,0.40,VWS V14.01,2013-02-08 11:55:00,
2013-02-08 07:00:00,46.2,45.7,29.74,NNW,335,0.0,7.0,98,0.00,,---,0.40,VWS V14.01,2013-02-08 12:00:00,
2013-02-08 07:05:00,46.2,45.7,29.75,NW,326,0.0,4.0,98,0.00,,---,0.40,VWS V14.01,2013-02-08 12:05:00,
2013-02-08 07:10:00,46.4,45.9,29.75,NNW,329,0.0,6.0,98,0.00,,---,0.40,VWS V14.01,2013-02-08 12:10:00,
2013-02-08 07:15:00,46.4,45.6,29.75,NW,323,0.0,3.0,97,0.00,,---,0.40,VWS V14.01,2013-02-08 12:15:00,
2013-02-08 07:20:00,46.2,45.1,29.75,NE,37,2.0,7.0,96,0.00,,---,0.40,VWS V14.01,2013-02-08 12:20:00,
2013-02-08 07:25:00,46.2,44.8,29.75,NW,325,1.0,5.0,95,0.00,,---,0.40,VWS V14.01,2013-02-08 12:25:00,
2013-02-08 07:30:00,46.2,44.8,29.75,NNW,328,1.0,5.0,95,0.00,,---,0.40,VWS V14.01,2013-02-08 12:30:00,
2013-02-08 07:35:00,46.1,45.0,29.75,WNW,299,2.0,3.0,96,0.00,,---,0.40,VWS V14.01,2013-02-08 12:35:00,
2013-02-08 07:40:00,46.0,44.9,29.75,NNW,340,0.0,3.0,96,0.00,,---,0.40,VWS V14.01,2013-02-08 12:40:00,
2013-02-08 07:45:00,46.0,44.9,29.75,WNW,291,0.0,2.0,96,0.00,,---,0.40,VWS V14.01,2013-02-08 12:45:00,
2013-02-08 07:50:00,45.8,44.7,29.74,NW,319,0.0,4.0,96,0.00,,---,0.40,VWS V14.01,2013-02-08 12:50:00,
2013-02-08 07:55:00,45.8,44.7,29.74,NW,319,2.0,4.0,96,0.00,,---,0.40,VWS V14.01,2013-02-08 12:55:00,
2013-02-08 08:00:00,45.8,44.5,29.74,NW,320,2.0,6.0,95,0.00,,---,0.40,VWS V14.01,2013-02-08 13:00:00,
2013-02-08 08:05:00,46.0,44.7,29.75,SW,236,0.0,7.0,95,0.00,,---,0.40,VWS V14.01,2013-02-08 13:05:00,
2013-02-08 08:10:00,46.0,44.7,29.75,NW,323,0.0,7.0,95,0.00,,---,0.40,VWS V14.01,2013-02-08 13:10:00,
2013-02-08 08:15:00,46.1,44.5,29.75,NW,316,3.0,4.0,94,0.00,,---,0.40,VWS V14.01,2013-02-08 13:15:00,
2013-02-08 08:20:00,46.2,44.6,29.75,NW,316,3.0,5.0,94,0.00,,---,0.40,VWS V14.01,2013-02-08 13:20:00,
2013-02-08 08:25:00,46.4,44.5,29.75,NW,320,2.0,4.0,93,0.00,,---,0.40,VWS V14.01,2013-02-08 13:25:00,
2013-02-08 08:30:00,46.5,44.3,29.75,NW,320,2.0,5.0,92,0.00,,---,0.40,VWS V14.01,2013-02-08 13:30:00,
2013-02-08 08:35:00,46.7,44.5,29.76,NW,320,2.0,3.0,92,0.00,,---,0.40,VWS V14.01,2013-02-08 13:35:00,
2013-02-08 08:40:00,47.0,44.8,29.76,NW,320,1.0,5.0,92,0.00,,---,0.40,VWS V14.01,2013-02-08 13:40:00,
2013-02-08 08:45:00,47.1,44.9,29.76,NW,319,6.0,6.0,92,0.00,,---,0.40,VWS V14.01,2013-02-08 13:45:00,
2013-02-08 08:50:00,47.3,44.8,29.77,NW,322,5.0,6.0,91,0.00,,---,0.40,VWS V14.01,2013-02-08 13:50:00,
2013-02-08 08:55:00,47.4,44.9,29.77,NW,315,2.0,6.0,91,0.00,,---,0.40,VWS V14.01,2013-02-08 13:55:00,
2013-02-08 09:00:00,47.3,44.5,29.77,NW,309,2.0,8.0,90,0.00,,---,0.40,VWS V14.01,2013-02-08 14:00:00,
2013-02-08 09:05:00,47.1,44.3,29.78,NW,316,2.0,6.0,90,0.00,,---,0.40,VWS V14.01,2013-02-08 14:05:00,
2013-02-08 09:10:00,46.8,44.0,29.78,NW,322,3.0,8.0,90,0.00,,---,0.40,VWS V14.01,2013-02-08 14:10:00,
2013-02-08 09:15:00,46.5,44.0,29.78,NW,326,2.0,3.0,91,0.00,,---,0.40,VWS V14.01,2013-02-08 14:15:00,
2013-02-08 09:20:00,46.2,43.4,29.79,NW,319,5.0,6.0,90,0.00,,---,0.40,VWS V14.01,2013-02-08 14:20:00,
2013-02-08 09:25:00,46.1,43.3,29.79,NW,325,0.0,3.0,90,0.00,,---,0.40,VWS V14.01,2013-02-08 14:25:00,
2013-02-08 09:30:00,46.1,43.9,29.79,NW,325,0.0,3.0,92,0.00,,---,0.40,VWS V14.01,2013-02-08 14:30:00,
2013-02-08 09:35:00,46.0,43.5,29.80,NW,318,2.0,6.0,91,0.00,,---,0.40,VWS V14.01,2013-02-08 14:35:00,
2013-02-08 09:40:00,45.7,43.2,29.80,NW,305,2.0,6.0,91,0.00,,---,0.40,VWS V14.01,2013-02-08 14:40:00,
2013-02-08 09:45:00,45.5,43.0,29.80,NW,305,3.0,4.0,91,0.00,,---,0.40,VWS V14.01,2013-02-08 14:45:00,
2013-02-08 09:50:00,45.4,42.9,29.81,NW,315,5.0,5.0,91,0.00,,---,0.40,VWS V14.01,2013-02-08 14:50:00,
2013-02-08 09:55:00,45.2,42.7,29.81,NW,318,3.0,4.0,91,0.00,,---,0.40,VWS V14.01,2013-02-08 14:55:00,
2013-02-08 10:00:00,45.1,42.6,29.81,NNW,330,2.0,6.0,91,0.00,,---,0.40,VWS V14.01,2013-02-08 15:00:00,
2013-02-08 10:05:00,44.8,42.3,29.82,NNW,329,5.0,8.0,91,0.00,,---,0.40,VWS V14.01,2013-02-08 15:05:00,
2013-02-08 10:10:00,44.5,41.8,29.82,NW,305,5.0,8.0,90,0.00,,---,0.40,VWS V14.01,2013-02-08 15:10:00,
2013-02-08 10:15:00,44.3,41.6,29.82,NNW,343,2.0,7.0,90,0.00,,---,0.40,VWS V14.01,2013-02-08 15:15:00,
2013-02-08 10:20:00,44.1,41.7,29.83,NW,311,2.0,7.0,91,0.00,,---,0.40,VWS V14.01,2013-02-08 15:20:00,
2013-02-08 10:25:00,43.9,41.5,29.83,NW,325,4.0,6.0,91,0.00,,---,0.40,VWS V14.01,2013-02-08 15:25:00,
2013-02-08 10:30:00,43.9,41.7,29.83,NW,322,3.0,6.0,92,0.00,,---,0.40,VWS V14.01,2013-02-08 15:30:00,
2013-02-08 10:35:00,44.1,41.7,29.83,NW,308,2.0,5.0,91,0.00,,---,0.40,VWS V14.01,2013-02-08 15:35:00,
2013-02-08 10:40:00,44.1,41.7,29.83,WNW,282,2.0,5.0,91,0.00,,---,0.40,VWS V14.01,2013-02-08 15:40:00,
2013-02-08 10:45:00,44.1,41.4,29.83,NW,308,2.0,6.0,90,0.00,,---,0.40,VWS V14.01,2013-02-08 15:45:00,
2013-02-08 10:50:00,44.1,41.7,29.84,NW,304,2.0,6.0,91,0.00,,---,0.40,VWS V14.01,2013-02-08 15:50:00,
2013-02-08 10:55:00,44.3,41.8,29.84,WNW,294,1.0,5.0,91,0.00,,---,0.40,VWS V14.01,2013-02-08 15:55:00,
2013-02-08 11:00:00,44.5,42.0,29.84,WNW,294,0.0,5.0,91,0.00,,---,0.40,VWS V14.01,2013-02-08 16:00:00,
2013-02-08 11:05:00,44.6,42.1,29.84,NW,320,3.0,5.0,91,0.00,,---,0.40,VWS V14.01,2013-02-08 16:05:00,
2013-02-08 11:10:00,44.8,42.0,29.84,WNW,292,2.0,6.0,90,0.00,,---,0.40,VWS V14.01,2013-02-08 16:10:00,
2013-02-08 11:15:00,45.1,42.3,29.84,NW,319,2.0,5.0,90,0.00,,---,0.40,VWS V14.01,2013-02-08 16:15:00,
2013-02-08 11:20:00,45.2,42.5,29.85,NW,316,3.0,6.0,90,0.00,,---,0.40,VWS V14.01,2013-02-08 16:20:00,
2013-02-08 11:25:00,45.2,42.2,29.85,WNW,302,5.0,5.0,89,0.00,,---,0.40,VWS V14.01,2013-02-08 16:25:00,
2013-02-08 11:30:00,45.7,42.7,29.85,NNW,328,1.0,6.0,89,0.00,,---,0.40,VWS V14.01,2013-02-08 16:30:00,
2013-02-08 11:35:00,45.8,42.5,29.84,NNW,328,3.0,5.0,88,0.00,,---,0.40,VWS V14.01,2013-02-08 16:35:00,
2013-02-08 11:40:00,45.8,42.5,29.84,WSW,257,0.0,6.0,88,0.00,,---,0.40,VWS V14.01,2013-02-08 16:40:00,
2013-02-08 11:45:00,46.2,42.8,29.84,NW,322,1.0,3.0,88,0.00,,---,0.40,VWS V14.01,2013-02-08 16:45:00,
2013-02-08 11:50:00,46.5,43.4,29.83,NW,325,2.0,3.0,89,0.00,,---,0.40,VWS V14.01,2013-02-08 16:50:00,
2013-02-08 11:55:00,46.8,43.1,29.83,WNW,301,3.0,5.0,87,0.00,,---,0.40,VWS V14.01,2013-02-08 16:55:00,
2013-02-08 12:00:00,47.1,43.4,29.83,North,359,2.0,5.0,87,0.00,,---,0.40,VWS V14.01,2013-02-08 17:00:00,
2013-02-08 12:05:00,47.4,43.7,29.83,WNW,289,2.0,4.0,87,0.00,,---,0.40,VWS V14.01,2013-02-08 17:05:00,
2013-02-08 12:10:00,48.0,44.0,29.83,WNW,289,2.0,4.0,86,0.00,,---,0.40,VWS V14.01,2013-02-08 17:10:00,
2013-02-08 12:15:00,48.8,44.2,29.83,NW,323,0.0,3.0,84,0.00,,---,0.40,VWS V14.01,2013-02-08 17:15:00,
2013-02-08 12:20:00,49.4,44.8,29.81,NW,318,0.0,3.0,84,0.00,,---,0.40,VWS V14.01,2013-02-08 17:20:00,
2013-02-08 12:25:00,50.2,44.9,29.81,NW,318,0.0,4.0,82,0.00,,---,0.40,VWS V14.01,2013-02-08 17:25:00,
2013-02-08 12:30:00,50.7,44.8,29.81,SW,236,2.0,4.0,80,0.00,,---,0.40,VWS V14.01,2013-02-08 17:30:00,
2013-02-08 12:35:00,50.8,44.9,29.80,NW,319,0.0,3.0,80,0.00,,---,0.40,VWS V14.01,2013-02-08 17:35:00,
2013-02-08 12:40:00,51.0,45.4,29.80,NNE,30,0.0,3.0,81,0.00,,---,0.40,VWS V14.01,2013-02-08 17:40:00,
2013-02-08 12:45:00,51.3,45.7,29.80,NW,326,2.0,3.0,81,0.00,,---,0.40,VWS V14.01,2013-02-08 17:45:00,
2013-02-08 12:50:00,51.4,45.5,29.80,NW,325,2.0,5.0,80,0.00,,---,0.40,VWS V14.01,2013-02-08 17:50:00,
2013-02-08 12:55:00,51.7,46.1,29.80,West,275,0.0,4.0,81,0.00,,---,0.40,VWS V14.01,2013-02-08 17:55:00,
2013-02-08 13:00:00,51.9,45.9,29.80,NNW,332,0.0,4.0,80,0.00,,---,0.40,VWS V14.01,2013-02-08 18:00:00,
2013-02-08 13:05:00,52.3,46.3,29.79,NW,316,2.0,5.0,80,0.00,,---,0.40,VWS V14.01,2013-02-08 18:05:00,
2013-02-08 13:10:00,52.6,46.0,29.79,NNW,342,0.0,5.0,78,0.00,,---,0.40,VWS V14.01,2013-02-08 18:10:00,
2013-02-08 13:15:00,52.9,46.2,29.79,NW,315,2.0,6.0,78,0.00,,---,0.40,VWS V14.01,2013-02-08 18:15:00,
2013-02-08 13:20:00,53.2,46.2,29.80,WSW,256,0.0,6.0,77,0.00,,---,0.40,VWS V14.01,2013-02-08 18:20:00,
2013-02-08 13:25:00,53.5,46.5,29.80,North,357,3.0,5.0,77,0.00,,---,0.40,VWS V14.01,2013-02-08 18:25:00,
2013-02-08 13:30:00,53.9,46.9,29.80,West,278,1.0,5.0,77,0.00,,---,0.40,VWS V14.01,2013-02-08 18:30:00,
2013-02-08 13:35:00,54.4,47.0,29.80,WNW,294,0.0,4.0,76,0.00,,---,0.40,VWS V14.01,2013-02-08 18:35:00,
2013-02-08 13:40:00,54.8,46.7,29.80,NW,316,3.0,6.0,74,0.00,,---,0.40,VWS V14.01,2013-02-08 18:40:00,
2013-02-08 13:45:00,55.3,46.8,29.80,NW,316,0.0,3.0,73,0.00,,---,0.40,VWS V14.01,2013-02-08 18:45:00,
2013-02-08 13:50:00,55.4,46.5,29.80,WNW,298,2.0,7.0,72,0.00,,---,0.40,VWS V14.01,2013-02-08 18:50:00,
2013-02-08 13:55:00,55.6,47.1,29.80,NW,320,0.0,2.0,73,0.00,,---,0.40,VWS V14.01,2013-02-08 18:55:00,
2013-02-08 14:00:00,55.9,47.0,29.80,West,260,1.0,3.0,72,0.00,,---,0.40,VWS V14.01,2013-02-08 19:00:00,
2013-02-08 14:05:00,56.2,47.3,29.79,NNW,335,5.0,5.0,72,0.00,,---,0.40,VWS V14.01,2013-02-08 19:05:00,
2013-02-08 14:10:00,56.5,46.8,29.79,NW,306,0.0,5.0,70,0.00,,---,0.40,VWS V14.01,2013-02-08 19:10:00,
2013-02-08 14:15:00,56.7,47.0,29.79,North,352,2.0,5.0,70,0.00,,---,0.40,VWS V14.01,2013-02-08 19:15:00,
2013-02-08 14:20:00,56.9,47.6,29.78,NW,313,0.0,6.0,71,0.00,,---,0.40,VWS V14.01,2013-02-08 19:20:00,
2013-02-08 14:25:00,57.2,47.9,29.78,NNW,328,1.0,3.0,71,0.00,,---,0.40,VWS V14.01,2013-02-08 19:25:00,
2013-02-08 14:30:00,57.5,48.2,29.78,NW,316,1.0,3.0,71,0.00,,---,0.40,VWS V14.01,2013-02-08 19:30:00,
2013-02-08 14:35:00,57.6,47.5,29.78,WNW,302,0.0,6.0,69,0.00,,---,0.40,VWS V14.01,2013-02-08 19:35:00,
2013-02-08 14:40:00,57.8,47.3,29.78,NW,312,0.0,6.0,68,0.00,,---,0.40,VWS V14.01,2013-02-08 19:40:00,
2013-02-08 14:45:00,58.1,47.6,29.78,WNW,299,2.0,5.0,68,0.00,,---,0.40,VWS V14.01,2013-02-08 19:45:00,
2013-02-08 14:50:00,58.3,48.2,29.77,NW,325,0.0,5.0,69,0.00,,---,0.40,VWS V14.01,2013-02-08 19:50:00,
2013-02-08 14:55:00,58.3,47.4,29.77,NW,306,0.0,5.0,67,0.00,,---,0.40,VWS V14.01,2013-02-08 19:55:00,
2013-02-08 15:00:00,58.4,48.3,29.77,NW,308,2.0,7.0,69,0.00,,---,0.40,VWS V14.01,2013-02-08 20:00:00,
2013-02-08 15:05:00,58.6,47.7,29.77,SSW,205,2.0,5.0,67,0.00,,---,0.40,VWS V14.01,2013-02-08 20:05:00,
2013-02-08 15:10:00,58.9,48.0,29.77,NW,305,0.0,5.0,67,0.00,,---,0.40,VWS V14.01,2013-02-08 20:10:00,
2013-02-08 15:15:00,59.0,48.5,29.77,NNW,336,2.0,3.0,68,0.00,,---,0.40,VWS V14.01,2013-02-08 20:15:00,
2013-02-08 15:20:00,59.3,47.1,29.77,WNW,288,1.0,4.0,64,0.00,,---,0.40,VWS V14.01,2013-02-08 20:20:00,
2013-02-08 15:25:00,59.6,48.6,29.77,NW,309,3.0,7.0,67,0.00,,---,0.40,VWS V14.01,2013-02-08 20:25:00,
2013-02-08 15:30:00,59.6,47.4,29.77,NW,322,3.0,7.0,64,0.00,,---,0.40,VWS V14.01,2013-02-08 20:30:00,
2013-02-08 15:35:00,59.6,47.8,29.78,WNW,299,2.0,3.0,65,0.00,,---,0.40,VWS V14.01,2013-02-08 20:35:00,
2013-02-08 15:40:00,59.6,48.2,29.78,WNW,285,1.0,5.0,66,0.00,,---,0.40,VWS V14.01,2013-02-08 20:40:00,
2013-02-08 15:45:00,59.6,47.8,29.78,NW,308,2.0,6.0,65,0.00,,---,0.40,VWS V14.01,2013-02-08 20:45:00,
2013-02-08 15:50:00,59.9,47.7,29.78,NNW,335,3.0,7.0,64,0.00,,---,0.40,VWS V14.01,2013-02-08 20:50:00,
2013-02-08 15:55:00,59.9,48.1,29.78,NW,313,3.0,6.0,65,0.00,,---,0.40,VWS V14.01,2013-02-08 20:55:00,
2013-02-08 16:00:00,59.6,47.4,29.78,NW,315,3.0,6.0,64,0.00,,---,0.40,VWS V14.01,2013-02-08 21:00:00,
2013-02-08 16:05:00,59.3,48.0,29.79,NW,306,0.0,5.0,66,0.00,,---,0.40,VWS V14.01,2013-02-08 21:05:00,
2013-02-08 16:10:00,59.2,47.9,29.79,WNW,285,0.0,5.0,66,0.00,,---,0.40,VWS V14.01,2013-02-08 21:10:00,
2013-02-08 16:15:00,59.0,48.1,29.79,NNW,339,0.0,3.0,67,0.00,,---,0.40,VWS V14.01,2013-02-08 21:15:00,
2013-02-08 16:20:00,58.9,47.6,29.79,WNW,285,0.0,3.0,66,0.00,,---,0.40,VWS V14.01,2013-02-08 21:20:00,
2013-02-08 16:25:00,59.0,48.1,29.79,NW,311,2.0,3.0,67,0.00,,---,0.40,VWS V14.01,2013-02-08 21:25:00,
2013-02-08 16:30:00,59.2,48.3,29.79,NW,308,1.0,6.0,67,0.00,,---,0.40,VWS V14.01,2013-02-08 21:30:00,
2013-02-08 16:35:00,59.2,48.3,29.79,NW,304,0.0,2.0,67,0.00,,---,0.40,VWS V14.01,2013-02-08 21:35:00,
2013-02-08 16:40:00,59.2,48.3,29.79,NW,322,3.0,6.0,67,0.00,,---,0.40,VWS V14.01,2013-02-08 21:40:00,
2013-02-08 16:45:00,58.7,47.4,29.79,NW,318,3.0,8.0,66,0.00,,---,0.40,VWS V14.01,2013-02-08 21:45:00,
2013-02-08 16:50:00,58.6,47.7,29.80,NW,318,0.0,8.0,67,0.00,,---,0.40,VWS V14.01,2013-02-08 21:50:00,
2013-02-08 16:55:00,58.3,47.8,29.80,NNE,18,1.0,5.0,68,0.00,,---,0.40,VWS V14.01,2013-02-08 21:55:00,
2013-02-08 17:00:00,58.1,47.2,29.80,NW,306,0.0,5.0,67,0.00,,---,0.40,VWS V14.01,2013-02-08 22:00:00,
2013-02-08 17:05:00,58.0,47.5,29.80,NW,306,0.0,0.0,68,0.00,,---,0.40,VWS V14.01,2013-02-08 22:05:00,
2013-02-08 17:10:00,58.0,48.3,29.80,NW,308,0.0,0.0,70,0.00,,---,0.40,VWS V14.01,2013-02-08 22:10:00,
2013-02-08 17:15:00,57.8,48.1,29.80,NW,308,0.0,0.0,70,0.00,,---,0.40,VWS V14.01,2013-02-08 22:15:00,
2013-02-08 17:20:00,57.6,47.9,29.80,NW,308,0.0,0.0,70,0.00,,---,0.40,VWS V14.01,2013-02-08 22:20:00,
2013-02-08 17:25:00,57.6,48.3,29.80,NW,308,0.0,0.0,71,0.00,,---,0.40,VWS V14.01,2013-02-08 22:25:00,
2013-02-08 17:30:00,57.5,48.6,29.80,NW,308,0.0,0.0,72,0.00,,---,0.40,VWS V14.01,2013-02-08 22:30:00,
2013-02-08 17:35:00,57.3,48.4,29.81,NW,308,0.0,0.0,72,0.00,,---,0.40,VWS V14.01,2013-02-08 22:35:00,
2013-02-08 17:40:00,57.2,48.6,29.81,NW,308,0.0,0.0,73,0.00,,---,0.40,VWS V14.01,2013-02-08 22:40:00,
2013-02-08 17:45:00,57.0,48.4,29.81,NW,308,0.0,0.0,73,0.00,,---,0.40,VWS V14.01,2013-02-08 22:45:00,
2013-02-08 17:50:00,57.0,49.2,29.81,NW,308,0.0,0.0,75,0.00,,---,0.40,VWS V14.01,2013-02-08 22:50:00,
2013-02-08 17:55:00,56.9,49.4,29.81,NW,308,0.0,0.0,76,0.00,,---,0.40,VWS V14.01,2013-02-08 22:55:00,
2013-02-08 18:00:00,56.9,49.1,29.81,NW,308,0.0,0.0,75,0.00,,---,0.40,VWS V14.01,2013-02-08 23:00:00,
2013-02-08 18:05:00,56.7,48.9,29.82,NW,308,0.0,0.0,75,0.00,,---,0.40,VWS V14.01,2013-02-08 23:05:00,
2013-02-08 18:10:00,56.7,48.9,29.82,NW,308,0.0,0.0,75,0.00,,---,0.40,VWS V14.01,2013-02-08 23:10:00,
2013-02-08 18:15:00,56.7,49.2,29.82,NW,308,0.0,0.0,76,0.00,,---,0.40,VWS V14.01,2013-02-08 23:15:00,
2013-02-08 18:20:00,56.6,49.1,29.82,NW,308,0.0,0.0,76,0.00,,---,0.40,VWS V14.01,2013-02-08 23:20:00,
2013-02-08 18:25:00,56.5,49.0,29.82,NW,308,0.0,0.0,76,0.00,,---,0.40,VWS V14.01,2013-02-08 23:25:00,
2013-02-08 18:30:00,56.5,49.7,29.82,NW,308,0.0,0.0,78,0.00,,---,0.40,VWS V14.01,2013-02-08 23:30:00,
2013-02-08 18:35:00,56.7,49.9,29.83,NW,308,0.0,0.0,78,0.00,,---,0.40,VWS V14.01,2013-02-08 23:35:00,
2013-02-08 18:40:00,57.0,49.9,29.83,NW,308,0.0,0.0,77,0.00,,---,0.40,VWS V14.01,2013-02-08 23:40:00,
2013-02-08 18:45:00,57.0,49.9,29.83,NW,308,0.0,0.0,77,0.00,,---,0.40,VWS V14.01,2013-02-08 23:45:00,
2013-02-08 18:50:00,56.9,49.8,29.84,NW,308,0.0,0.0,77,0.00,,---,0.40,VWS V14.01,2013-02-08 23:50:00,
2013-02-08 18:55:00,56.7,49.9,29.84,NW,308,0.0,0.0,78,0.00,,---,0.40,VWS V14.01,2013-02-08 23:55:00,
2013-02-08 19:00:00,56.6,49.8,29.84,NW,308,0.0,0.0,78,0.00,,---,0.40,VWS V14.01,2013-02-09 00:00:00,
2013-02-08 19:05:00,56.5,49.7,29.84,NW,308,0.0,0.0,78,0.00,,---,0.40,VWS V14.01,2013-02-09 00:05:00,
2013-02-08 19:10:00,56.3,49.9,29.84,NW,308,0.0,0.0,79,0.00,,---,0.40,VWS V14.01,2013-02-09 00:10:00,
2013-02-08 19:15:00,56.0,49.6,29.84,NW,308,0.0,0.0,79,0.00,,---,0.40,VWS V14.01,2013-02-09 00:15:00,
2013-02-08 19:20:00,55.7,49.6,29.84,NW,308,0.0,0.0,80,0.00,,---,0.40,VWS V14.01,2013-02-09 00:20:00,
2013-02-08 19:25:00,55.4,49.3,29.84,NW,308,0.0,0.0,80,0.00,,---,0.40,VWS V14.01,2013-02-09 00:25:00,
2013-02-08 19:30:00,55.0,49.3,29.84,NW,308,0.0,0.0,81,0.00,,---,0.40,VWS V14.01,2013-02-09 00:30:00,
2013-02-08 19:35:00,54.7,49.0,29.85,NW,308,0.0,0.0,81,0.00,,---,0.40,VWS V14.01,2013-02-09 00:35:00,
2013-02-08 19:40:00,54.4,49.0,29.85,NW,308,0.0,0.0,82,0.00,,---,0.40,VWS V14.01,2013-02-09 00:40:00,
2013-02-08 19:45:00,54.1,49.1,29.85,NW,308,0.0,0.0,83,0.00,,---,0.40,VWS V14.01,2013-02-09 00:45:00,
2013-02-08 19:50:00,53.6,48.9,29.86,NW,308,0.0,0.0,84,0.00,,---,0.40,VWS V14.01,2013-02-09 00:50:00,
2013-02-08 19:55:00,53.3,48.9,29.86,NW,308,0.0,0.0,85,0.00,,---,0.40,VWS V14.01,2013-02-09 00:55:00,
2013-02-08 20:00:00,53.2,48.8,29.86,NW,308,0.0,0.0,85,0.00,,---,0.40,VWS V14.01,2013-02-09 01:00:00,
2013-02-08 20:05:00,52.9,48.5,29.86,NW,308,0.0,0.0,85,0.00,,---,0.40,VWS V14.01,2013-02-09 01:05:00,
2013-02-08 20:10:00,52.8,48.4,29.86,NW,308,0.0,1.0,85,0.00,,---,0.40,VWS V14.01,2013-02-09 01:10:00,
2013-02-08 20:15:00,52.5,48.4,29.86,NW,308,0.0,0.0,86,0.00,,---,0.40,VWS V14.01,2013-02-09 01:15:00,
2013-02-08 20:20:00,52.3,48.2,29.87,NW,308,0.0,0.0,86,0.00,,---,0.40,VWS V14.01,2013-02-09 01:20:00,
2013-02-08 20:25:00,52.2,48.2,29.87,NW,308,0.0,0.0,86,0.00,,---,0.40,VWS V14.01,2013-02-09 01:25:00,
2013-02-08 20:30:00,52.0,48.3,29.87,NW,308,0.0,1.0,87,0.00,,---,0.40,VWS V14.01,2013-02-09 01:30:00,
2013-02-08 20:35:00,51.9,47.8,29.88,NW,308,0.0,1.0,86,0.00,,---,0.40,VWS V14.01,2013-02-09 01:35:00,
2013-02-08 20:40:00,51.7,47.3,29.88,NW,308,0.0,1.0,85,0.00,,---,0.40,VWS V14.01,2013-02-09 01:40:00,
2013-02-08 20:45:00,51.6,47.2,29.88,NW,308,0.0,0.0,85,0.00,,---,0.40,VWS V14.01,2013-02-09 01:45:00,
2013-02-08 20:50:00,51.4,46.7,29.89,NW,308,0.0,0.0,84,0.00,,---,0.40,VWS V14.01,2013-02-09 01:50:00,
2013-02-08 20:55:00,51.3,46.6,29.89,NW,308,0.0,0.0,84,0.00,,---,0.40,VWS V14.01,2013-02-09 01:55:00,
2013-02-08 21:00:00,51.3,47.0,29.89,NW,308,0.0,0.0,85,0.00,,---,0.40,VWS V14.01,2013-02-09 02:00:00,
2013-02-08 21:05:00,51.1,46.1,29.90,NW,308,0.0,0.0,83,0.00,,---,0.40,VWS V14.01,2013-02-09 02:05:00,
2013-02-08 21:10:00,51.1,46.4,29.90,NW,308,0.0,0.0,84,0.00,,---,0.40,VWS V14.01,2013-02-09 02:10:00,
2013-02-08 21:15:00,51.0,45.7,29.90,NW,308,0.0,0.0,82,0.00,,---,0.40,VWS V14.01,2013-02-09 02:15:00,
2013-02-08 21:20:00,50.8,45.8,29.90,NW,308,0.0,0.0,83,0.00,,---,0.40,VWS V14.01,2013-02-09 02:20:00,
2013-02-08 21:25:00,50.7,45.7,29.90,NW,308,0.0,0.0,83,0.00,,---,0.40,VWS V14.01,2013-02-09 02:25:00,
2013-02-08 21:30:00,50.5,45.8,29.90,NW,308,0.0,0.0,84,0.00,,---,0.40,VWS V14.01,2013-02-09 02:30:00,
2013-02-08 21:35:00,50.4,45.4,29.92,NW,308,0.0,0.0,83,0.00,,---,0.40,VWS V14.01,2013-02-09 02:35:00,
2013-02-08 21:40:00,50.1,44.2,29.92,NW,308,0.0,2.0,80,0.00,,---,0.40,VWS V14.01,2013-02-09 02:40:00,
2013-02-08 21:45:00,49.8,44.2,29.92,NW,308,0.0,0.0,81,0.00,,---,0.40,VWS V14.01,2013-02-09 02:45:00,
2013-02-08 21:50:00,49.6,44.0,29.93,NW,308,2.0,2.0,81,0.00,,---,0.40,VWS V14.01,2013-02-09 02:50:00,
2013-02-08 21:55:00,49.5,42.3,29.93,NW,308,1.0,4.0,76,0.00,,---,0.40,VWS V14.01,2013-02-09 02:55:00,
2013-02-08 22:00:00,49.5,41.9,29.93,NW,308,0.0,4.0,75,0.00,,---,0.40,VWS V14.01,2013-02-09 03:00:00,
2013-02-08 22:05:00,49.6,41.0,29.93,NW,308,2.0,3.0,72,0.00,,---,0.40,VWS V14.01,2013-02-09 03:05:00,
2013-02-08 22:10:00,49.6,41.3,29.93,NNW,344,1.0,3.0,73,0.00,,---,0.40,VWS V14.01,2013-02-09 03:10:00,
2013-02-08 22:15:00,49.8,41.2,29.93,NNW,344,0.0,3.0,72,0.00,,---,0.40,VWS V14.01,2013-02-09 03:15:00,
2013-02-08 22:20:00,49.6,41.0,29.95,NNW,344,2.0,3.0,72,0.00,,---,0.40,VWS V14.01,2013-02-09 03:20:00,
2013-02-08 22:25:00,49.6,41.0,29.95,NNW,329,1.0,2.0,72,0.00,,---,0.40,VWS V14.01,2013-02-09 03:25:00,
2013-02-08 22:30:00,49.5,40.9,29.95,WNW,295,0.0,2.0,72,0.00,,---,0.40,VWS V14.01,2013-02-09 03:30:00,
2013-02-08 22:35:00,49.4,41.1,29.96,WNW,298,1.0,2.0,73,0.00,,---,0.40,VWS V14.01,2013-02-09 03:35:00,
2013-02-08 22:40:00,49.1,40.5,29.96,NNW,333,1.0,3.0,72,0.00,,---,0.40,VWS V14.01,2013-02-09 03:40:00,
2013-02-08 22:45:00,48.9,39.6,29.96,NNW,336,2.0,4.0,70,0.00,,---,0.40,VWS V14.01,2013-02-09 03:45:00,
2013-02-08 22:50:00,48.6,39.3,29.97,WNW,301,3.0,5.0,70,0.00,,---,0.40,VWS V14.01,2013-02-09 03:50:00,
2013-02-08 22:55:00,48.3,37.9,29.97,NNW,346,0.0,3.0,67,0.00,,---,0.40,VWS V14.01,2013-02-09 03:55:00,
2013-02-08 23:00:00,48.2,37.8,29.97,North,352,1.0,3.0,67,0.00,,---,0.40,VWS V14.01,2013-02-09 04:00:00,
2013-02-08 23:05:00,47.9,35.9,29.98,NNW,328,2.0,5.0,63,0.00,,---,0.40,VWS V14.01,2013-02-09 04:05:00,
2013-02-08 23:10:00,47.7,35.3,29.98,WNW,291,3.0,5.0,62,0.00,,---,0.40,VWS V14.01,2013-02-09 04:10:00,
2013-02-08 23:15:00,47.4,35.5,29.98,NW,306,2.0,3.0,63,0.00,,---,0.40,VWS V14.01,2013-02-09 04:15:00,
2013-02-08 23:20:00,47.3,34.5,29.99,NNW,340,3.0,5.0,61,0.00,,---,0.40,VWS V14.01,2013-02-09 04:20:00,
2013-02-08 23:25:00,47.0,33.8,29.99,North,359,1.0,6.0,60,0.00,,---,0.40,VWS V14.01,2013-02-09 04:25:00,
2013-02-08 23:30:00,46.8,34.9,29.99,North,359,0.0,6.0,63,0.00,,---,0.40,VWS V14.01,2013-02-09 04:30:00,
2013-02-08 23:35:00,46.5,33.8,30.00,North,359,0.0,1.0,61,0.00,,---,0.40,VWS V14.01,2013-02-09 04:35:00,
2013-02-08 23:40:00,46.2,33.9,30.00,NNW,333,0.0,3.0,62,0.00,,---,0.40,VWS V14.01,2013-02-09 04:40:00,
2013-02-08 23:45:00,46.1,34.6,30.00,NNW,333,0.0,0.0,64,0.00,,---,0.40,VWS V14.01,2013-02-09 04:45:00,
2013-02-08 23:50:00,45.8,35.1,30.01,NNE,24,0.0,3.0,66,0.00,,---,0.40,VWS V14.01,2013-02-09 04:50:00,
2013-02-08 23:55:00,45.7,34.2,30.01,NW,313,0.0,2.0,64,0.00,,---,0.40,VWS V14.01,2013-02-09 04:55:00,